Погода в Макасе

Эквадор     2°18′44″S   78°06′32″W
В апреле 2022 года жителям России запретили посещать сайт meteo.paraplan.net по решению Генеральной прокуратуры. Аудитория сайта уменьшилась в 10 раз. Владельцы сайта не видят смысла в поддержке погодного сервера в таких условиях. Сайт будет закрыт в октябре.
темп.,
°C
ветер,
м/с
пор.,
м/с
влажн.,
%
обл.,
%
осадки,
мм/ч
давл.,
гПа
погр.,
м
3 октября, пн
пн301:00+14зюз1197100 0.0 101815
04:00+14зюз1195100 0.0 101716
07:00+16юз119073 0.0 101840
10:00+25в115481 0.2 10171097
13:00+24вюв226296 0.8 1014947
16:00+22юв128813 1.7 1012303
19:00+17з119799 3.0 101513
22:00+16зюз119892 0.0 101618
4 октября, вт
вт401:00+15зюз119792 0.0 101424
04:00+14зюз119796 0.0 101420
07:00+16зюз119199 0.0 101650
10:00+26св114856 0.0 10151491
13:00+29св223897 0.0 10102542
16:00+24вюв236194 0.3 1008543
19:00+18з119066 0.8 101116
22:00+17з1194100 0.1 101317
5 октября, ср
ср501:00+16зюз1194100 0.1 101220
04:00+15зюз1191100 0.0 101121
07:00+17зюз118089 0.0 101349
10:00+26св125815 0.5 10131391
13:00+25всв126175 1.2 1010792
16:00+24ссв126699 0.1 1008349
19:00+19ссз1189100 0.5 101118
22:00+18з119057 0.3 101219
6 октября, чт
чт601:00+17зюз1192100 0.3 101122
04:00+16юз119018 0.1 101121
07:00+18зюз118065 0.1 101354
10:00+27св125314 0.4 10121450
13:00+28всв224775 0.9 10091755
16:00+25юв016689 0.1 1007244
19:00+20с008695 1.1 101017
22:00+18зюз119182 0.5 101220
7 октября, пт
пт701:00+17зюз119339 1.2 101136
04:00+16зюз119587 0.3 101118
07:00+18зюз1190100 0.3 101332
10:00+25всв2365100 0.9 1014885
13:00+23вюв127776 3.1 1011587
16:00+23св118263 2.9 1009396
19:00+18зюз119660 3.5 101016
22:00+17з119432 0.0 101225